Stations météo

réclame
Mon MeteoGroup
Catania/Sigonella, Italie (16459): Température de l'air & dewpoint: 17.05.2018 19:00:00 - 23.05.2018 19:00:00 (CEST)Catania/Sigonella, Italie (16459): Vitesse du vent: 17.05.2018 19:00:00 - 23.05.2018 19:00:00 (CEST)Catania/Sigonella, Italie (16459): Direction du vent: 17.05.2018 19:00:00 - 23.05.2018 19:00:00 (CEST)Catania/Sigonella, Italie (16459): reduced air pressure: 17.05.2018 19:00:00 - 23.05.2018 19:00:00 (CEST)Catania/Sigonella, Italie (16459): visibility: 17.05.2018 19:00:00 - 23.05.2018 19:00:00 (CEST)
Date & Time tt [°C] td [°C] ff [km/h] ff [knt] dd ppp [hPa] vv [km]
23.05.2018 19:00:00 - - - - - - -
23.05.2018 18:00:00 25,0 17,0 22 12 E - 10
23.05.2018 17:00:00 26,0 17,7 24 13 E 1014,4 10
23.05.2018 16:00:00 27,0 19,0 24 13 E - 10
23.05.2018 15:00:00 27,0 19,0 26 14 E - 10
23.05.2018 14:00:00 28,0 19,0 29 16 E 1014,5 10
23.05.2018 13:00:00 27,0 19,0 26 14 E - 10
23.05.2018 12:00:00 30,0 15,0 9 5 SSW - 10
23.05.2018 11:00:00 28,0 15,3 15 8 W 1014,6 10
23.05.2018 10:00:00 27,0 18,0 15 8 WSW - 10
23.05.2018 09:00:00 24,0 18,0 11 6 W - 10
23.05.2018 08:00:00 21,4 20,4 11 6 W 1014,4 10
23.05.2018 07:00:00 19,0 19,0 9 5 W - 9
23.05.2018 06:00:00 18,0 18,0 15 8 W - 8
23.05.2018 05:00:00 18,0 18,0 9 5 WNW 1013,7 8
23.05.2018 04:00:00 18,0 18,0 9 5 WNW - 8
23.05.2018 03:00:00 18,0 18,0 11 6 SW - 8
23.05.2018 02:00:00 20,6 20,6 9 5 W 1013,6 8
23.05.2018 01:00:00 21,0 21,0 8 4 NNE - 8
23.05.2018 00:00:00 21,0 20,0 13 7 NNE - 8
22.05.2018 23:00:00 20,8 20,5 11 6 S 1014,8 8
22.05.2018 22:00:00 21,0 21,0 8 4 SSE - 8
22.05.2018 21:00:00 21,0 21,0 9 5 SE - 8
22.05.2018 20:00:00 23,8 19,9 15 8 E 1013,3 8
22.05.2018 19:00:00 24,0 20,0 18 10 E - 10
22.05.2018 18:00:00 25,0 19,0 22 12 E - 10
22.05.2018 17:00:00 25,4 18,6 26 14 E 1013,3 10
22.05.2018 16:00:00 26,0 17,0 28 15 E - 10
22.05.2018 15:00:00 27,0 19,0 28 15 E - 10
22.05.2018 14:00:00 27,0 18,0 28 15 E 1014,4 10
22.05.2018 13:00:00 26,0 16,0 28 15 E - 10
22.05.2018 12:00:00 27,0 16,0 28 15 E - 10
22.05.2018 11:00:00 27,2 17,4 22 12 E 1014,6 10
22.05.2018 10:00:00 26,0 19,0 16 9 ENE - 10
22.05.2018 09:00:00 24,0 18,0 5 3 ENE - 9
22.05.2018 08:00:00 19,6 18,6 5 3 WSW 1014,5 8
22.05.2018 07:00:00 16,0 16,0 5 3 SW - 7
22.05.2018 06:00:00 17,0 16,0 5 3 W - 8
22.05.2018 05:00:00 15,0 15,0 5 3 WNW 1013,5 10
22.05.2018 04:00:00 16,0 16,0 4 2 SW - 10
22.05.2018 03:00:00 16,0 16,0 11 6 WSW - 10
22.05.2018 02:00:00 17,4 17,2 9 5 W 1014,3 10
22.05.2018 01:00:00 19,0 19,0 5 3 WNW - 10
22.05.2018 00:00:00 19,0 19,0 4 2 NW - 10
21.05.2018 23:00:00 19,0 18,8 9 5 ESE 1013,5 10
21.05.2018 22:00:00 20,0 20,0 8 4 ESE - 10
21.05.2018 21:00:00 22,0 21,0 11 6 E - 10
21.05.2018 20:00:00 22,6 22,3 21 11 ENE 1012,3 10
21.05.2018 19:00:00 24,0 20,0 28 15 E - 10
21.05.2018 18:00:00 25,0 17,0 29 16 E - 10
21.05.2018 17:00:00 26,0 16,8 26 14 E 1011,4 10
21.05.2018 16:00:00 27,0 17,0 26 14 E - 10
21.05.2018 15:00:00 28,0 15,0 28 15 E - 10
21.05.2018 14:00:00 29,4 12,4 22 12 E 1012,5 10
21.05.2018 13:00:00 28,0 15,0 18 10 E - 10
21.05.2018 12:00:00 28,0 16,0 16 9 E - 10
21.05.2018 11:00:00 26,2 17,8 16 9 E 1012,6 10
21.05.2018 10:00:00 25,0 18,0 16 9 E - 10
21.05.2018 09:00:00 23,0 19,0 8 4 SE - 10
21.05.2018 08:00:00 15,2 15,2 5 3 SW 1012,7 10
21.05.2018 07:00:00 16,0 16,0 4 2 NW - 10
21.05.2018 06:00:00 16,0 16,0 4 2 S - 10
21.05.2018 05:00:00 16,2 16,2 9 5 W 1012,5 10
21.05.2018 04:00:00 15,0 15,0 13 7 W - 10
21.05.2018 03:00:00 16,0 16,0 11 6 WNW - 10
21.05.2018 02:00:00 16,8 16,8 9 5 W 1012,6 10
21.05.2018 01:00:00 17,0 17,0 5 3 SW - 10
21.05.2018 00:00:00 18,0 18,0 9 5 WSW - 10
20.05.2018 23:00:00 18,8 18,8 8 4 N 1012,7 10
20.05.2018 22:00:00 19,0 19,0 8 4 N - 10
20.05.2018 21:00:00 20,0 20,0 8 4 ENE - 10
20.05.2018 20:00:00 20,6 20,3 11 6 SE 1011,4 10
20.05.2018 19:00:00 21,0 21,0 22 12 SE - 8
20.05.2018 18:00:00 21,0 21,0 18 10 SSE - 10
20.05.2018 17:00:00 20,2 20,0 22 12 E 1010,5 8
20.05.2018 16:00:00 22,0 20,0 24 13 E - 8
20.05.2018 15:00:00 23,0 13,0 34 18 E - 10
20.05.2018 14:00:00 25,6 14,7 35 19 E 1012,2 10
20.05.2018 13:00:00 25,0 15,0 37 20 E - 10
20.05.2018 12:00:00 26,0 15,0 34 18 E - 10
20.05.2018 11:00:00 25,4 15,7 29 16 E 1012,3 10
20.05.2018 10:00:00 25,0 14,0 26 14 E - 10
20.05.2018 09:00:00 24,0 15,0 21 11 E - 10
20.05.2018 08:00:00 18,4 16,0 5 3 WNW 1012,9 10
20.05.2018 07:00:00 15,0 14,0 5 3 WSW - 10
20.05.2018 06:00:00 15,0 14,0 9 5 W - 10
20.05.2018 05:00:00 15,0 14,2 4 2 WNW 1013,4 10
20.05.2018 04:00:00 15,0 14,0 5 3 SSW - 10
20.05.2018 03:00:00 15,0 14,0 8 4 SW - 10
20.05.2018 02:00:00 16,8 16,0 4 2 WNW 1014,3 10
20.05.2018 01:00:00 17,0 16,0 5 3 N - 10
20.05.2018 00:00:00 17,0 17,0 4 2 ESE - 10
19.05.2018 23:00:00 17,2 17,2 8 4 S 1013,9 10
19.05.2018 22:00:00 19,0 18,0 5 3 SSE - 10
19.05.2018 21:00:00 19,0 18,0 5 3 ESE - 10
19.05.2018 20:00:00 20,4 17,2 18 10 E 1013,5 10
19.05.2018 19:00:00 22,0 17,0 22 12 E - 10
19.05.2018 18:00:00 23,0 17,0 26 14 E - 10
19.05.2018 17:00:00 23,8 19,1 29 16 E 1013,9 10
19.05.2018 16:00:00 25,0 20,0 22 12 E - 10
19.05.2018 15:00:00 25,0 17,0 22 12 E - 10
19.05.2018 14:00:00 23,4 18,1 22 12 E 1014,3 10
19.05.2018 13:00:00 23,0 19,0 21 11 E - 10
19.05.2018 12:00:00 24,0 18,0 21 11 E - 10
19.05.2018 11:00:00 23,4 18,5 15 8 E 1013,9 10
19.05.2018 10:00:00 23,0 18,0 13 7 ENE - 10
19.05.2018 09:00:00 22,0 18,0 2 1 NNW - 10
19.05.2018 08:00:00 18,0 18,0 9 5 W 1014,4 12
19.05.2018 07:00:00 16,0 16,0 5 3 WNW - 10
19.05.2018 06:00:00 14,0 14,0 8 4 SW - 10
19.05.2018 05:00:00 15,8 15,8 9 5 W 1013,8 12
19.05.2018 04:00:00 15,0 15,0 107 58 W - 10
19.05.2018 03:00:00 15,0 15,0 9 5 WSW - 10
19.05.2018 02:00:00 17,2 17,2 8 4 NW 1014,4 12
19.05.2018 01:00:00 17,0 17,0 4 2 NW - 10
19.05.2018 00:00:00 17,0 17,0 8 4 S - 10
18.05.2018 23:00:00 17,8 17,8 8 4 S 1014,5 12
18.05.2018 22:00:00 18,0 18,0 11 6 SE - 10
18.05.2018 21:00:00 20,0 20,0 11 6 ESE - 10
18.05.2018 20:00:00 22,0 18,4 21 11 ESE 1012,9 10
18.05.2018 19:00:00 23,0 19,0 21 11 ESE - 10
18.05.2018 18:00:00 24,0 18,0 26 14 E - 10
18.05.2018 17:00:00 25,0 16,7 31 17 E 1011,9 10
18.05.2018 16:00:00 26,0 18,0 31 17 E - 10
18.05.2018 15:00:00 27,0 17,0 29 16 E - 10
18.05.2018 14:00:00 27,2 15,9 29 16 E 1011,9 10
18.05.2018 13:00:00 26,0 16,0 16 9 E - 10
18.05.2018 12:00:00 25,0 16,0 8 4 ENE - 10
18.05.2018 11:00:00 23,6 17,1 22 12 ENE 1012,9 10
18.05.2018 10:00:00 21,0 18,0 18 10 ENE - 8
18.05.2018 09:00:00 20,0 20,0 9 5 ESE - 8
18.05.2018 08:00:00 18,4 18,4 4 2 SW 1013,6 8
18.05.2018 07:00:00 18,0 18,0 8 4 WSW - 8
18.05.2018 06:00:00 18,0 18,0 4 2 WSW - 7
18.05.2018 05:00:00 18,6 18,3 4 2 N 1013,6 8
18.05.2018 04:00:00 19,0 18,0 5 3 W - 8
18.05.2018 03:00:00 19,0 18,0 4 2 NW - 8
18.05.2018 02:00:00 18,8 18,2 8 4 W 1015,5 8
18.05.2018 01:00:00 19,0 19,0 2 1 N - 8
18.05.2018 00:00:00 19,0 19,0 4 2 S - 8
17.05.2018 23:00:00 19,2 19,2 4 2 S 1016,2 8
17.05.2018 22:00:00 20,0 20,0 9 5 SE - 8
17.05.2018 21:00:00 20,0 20,0 13 7 ESE - 8
17.05.2018 20:00:00 20,2 20,2 16 9 E 1015,5 12
17.05.2018 19:00:00 21,0 21,0 21 11 E - 10

tt = Température de l'air
td = dewpoint
ff = Vitesse du vent
dd = Direction du vent
ppp = reduced air pressure
vv = visibility

stations d'obs. à proximité